GW0353 Weather Reports


Display with metric or nautical units.
time (UTC)temp
F
wind
direction
speed
MPH
gust
MPH
rain 1hr
in
rain 24hr
in
rain mn
in
humidity
%
barometer
mb
20260506091059 39 0 0.0 1.0 0.00 0.12 0.00 80 1022.0
20260506090558 40 0 0.0 1.0 0.00 0.12 0.00 80 1021.8
20260506090059 40 0 0.0 1.0 0.00 0.12 0.00 80 1021.8
20260506085558 40 0 0.0 2.0 0.00 0.12 0.00 80 1021.9
20260506085058 40 0 0.0 2.0 0.00 0.12 0.00 80 1021.8
20260506084559 40 161 0.0 3.0 0.00 0.12 0.00 82 1021.7
20260506084058 40 0 0.0 3.0 0.00 0.12 0.00 81 1021.7
20260506083559 40 151 0.0 3.0 0.00 0.12 0.00 82 1021.8
20260506083059 40 0 0.0 0.0 0.00 0.12 0.00 82 1021.9
20260506082558 40 0 0.0 0.0 0.00 0.12 0.00 81 1021.7
20260506082058 41 0 0.0 1.0 0.00 0.12 0.00 81 1021.7
20260506081600 41 0 0.0 2.0 0.00 0.12 0.00 81 1021.7
20260506081058 41 0 0.0 3.0 0.00 0.12 0.00 81 1021.8
20260506080558 41 0 0.0 3.0 0.00 0.12 0.00 82 1022.0
20260506080111 41 171 0.0 1.0 0.00 0.12 0.00 82 1022.2
20260506073100 41 0 0.0 0.0 0.00 0.12 0.00 80 1021.5
20260506072603 41 0 0.0 0.0 0.00 0.12 0.00 79 1021.3
20260506072059 41 0 0.0 1.0 0.00 0.12 0.00 79 1021.5
20260506071621 41 0 0.0 1.0 0.00 0.12 0.00 78 1021.5
20260506071058 42 0 0.0 1.0 0.00 0.12 0.00 77 1021.5
20260506070558 41 186 0.0 0.0 0.00 0.12 0.00 78 1021.5
20260506062058 42 0 0.0 0.0 0.00 0.12 0.12 73 1020.9
20260506061600 43 0 0.0 1.0 0.00 0.12 0.12 70 1020.8
20260506061059 43 0 0.0 1.0 0.00 0.12 0.12 68 1020.9
20260506060602 43 0 0.0 1.0 0.00 0.12 0.12 66 1020.9
20260506051058 45 243 0.0 4.0 0.00 0.12 0.12 63 1020.2
20260506050557 45 233 0.0 4.0 0.00 0.12 0.12 64 1020.2
20260506045056 45 198 0.0 2.0 0.00 0.12 0.12 66 1020.2
20260506044612 45 0 0.0 2.0 0.00 0.12 0.12 66 1020.2
20260506044056 45 0 0.0 4.0 0.00 0.12 0.12 66 1020.2
20260506043556 45 0 0.0 4.0 0.00 0.12 0.12 65 1020.0
20260506043059 45 222 0.0 1.0 0.00 0.12 0.12 65 1020.1
20260506042557 45 0 0.0 1.0 0.00 0.12 0.12 66 1019.9
20260506042056 45 0 0.0 2.0 0.00 0.12 0.12 65 1019.8
20260506041558 45 0 0.0 2.0 0.00 0.12 0.12 65 1019.7
20260506041056 45 0 0.0 2.0 0.00 0.12 0.12 65 1019.6
20260506040559 45 0 0.0 0.0 0.00 0.12 0.12 65 1019.6
20260506040059 45 0 0.0 2.0 0.00 0.12 0.12 65 1019.5
20260506035558 46 0 0.0 3.0 0.00 0.12 0.12 64 1019.6
20260506035057 45 150 0.0 3.0 0.00 0.12 0.12 65 1019.3
20260506034601 45 0 0.0 1.0 0.00 0.12 0.12 65 1019.3
20260506034057 46 0 0.0 1.0 0.00 0.12 0.12 64 1019.2
20260506033556 46 0 0.0 2.0 0.00 0.12 0.12 64 1019.0
20260506033059 46 236 0.0 2.0 0.00 0.12 0.12 64 1018.9
20260506032557 46 188 0.0 1.0 0.00 0.12 0.12 64 1018.8
20260506032057 46 0 0.0 1.0 0.00 0.12 0.12 64 1018.8
20260506031559 46 0 0.0 1.0 0.00 0.12 0.12 65 1018.6
20260506031100 46 213 0.0 2.0 0.00 0.12 0.12 64 1018.6
20260506030556 46 252 0.0 2.0 0.00 0.12 0.12 64 1018.6
20260506030056 46 0 0.0 3.0 0.00 0.12 0.12 63 1018.5
20260506025556 46 239 0.0 3.0 0.00 0.12 0.12 62 1018.4
20260506025056 47 0 0.0 2.0 0.00 0.12 0.12 62 1018.4
20260506024558 47 0 0.0 1.0 0.00 0.12 0.12 61 1018.3
20260506024058 48 0 0.0 1.0 0.00 0.12 0.12 60 1018.2
20260506023558 48 0 0.0 1.0 0.00 0.12 0.12 59 1018.1
20260506023102 49 0 0.0 1.0 0.00 0.12 0.12 58 1018.2
20260506022557 49 0 0.0 1.0 0.00 0.12 0.12 58 1018.0
20260506022057 50 0 0.0 1.0 0.00 0.12 0.12 57 1017.9
20260506021605 50 0 0.0 1.0 0.00 0.12 0.12 57 1017.9
20260506021057 50 0 0.0 2.0 0.00 0.12 0.12 58 1017.7
20260506020559 50 258 0.0 2.0 0.00 0.12 0.12 57 1017.7
20260506015557 51 194 0.0 2.0 0.00 0.15 0.12 56 1017.6
20260506015057 51 150 0.0 1.0 0.00 0.15 0.12 56 1017.6
20260506014600 52 0 0.0 2.0 0.00 0.15 0.12 55 1017.5
20260506014056 52 250 0.0 2.0 0.00 0.15 0.12 54 1017.5
20260506013556 52 0 0.0 2.0 0.00 0.15 0.12 54 1017.4
20260506013107 52 298 0.0 2.0 0.00 0.15 0.12 53 1017.4
20260506012556 53 0 0.0 2.0 0.00 0.15 0.12 53 1017.3
20260506012100 53 317 0.0 5.0 0.00 0.15 0.12 52 1017.3
20260506011601 53 0 0.0 5.0 0.00 0.15 0.12 51 1017.3
20260506011057 54 304 1.0 3.0 0.00 0.15 0.12 47 1017.3
20260506010557 56 5 1.0 5.0 0.00 0.15 0.12 47 1017.3
20260506010058 55 0 1.0 5.0 0.00 0.15 0.12 45 1017.0
20260506005556 56 0 1.0 6.0 0.00 0.15 0.12 47 1017.0
20260506005057 56 310 1.0 6.0 0.00 0.15 0.12 47 1016.9
20260506004604 55 0 0.0 4.0 0.00 0.15 0.12 49 1016.8
20260506004057 55 299 1.0 4.0 0.00 0.15 0.12 49 1016.8
20260506003601 55 317 1.0 4.0 0.00 0.15 0.12 49 1016.8
20260506003118 55 0 1.0 4.0 0.00 0.15 0.12 49 1016.8
20260506002558 54 0 1.0 3.0 0.00 0.15 0.12 53 1016.8
20260506002056 53 0 1.0 5.0 0.00 0.15 0.12 55 1016.8
20260506001611 53 285 0.0 5.0 0.00 0.15 0.12 55 1016.8
20260506001057 53 302 1.0 4.0 0.00 0.15 0.12 57 1016.6
20260506000557 52 295 1.0 4.0 0.00 0.15 0.12 57 1016.7
20260506000112 52 220 1.0 4.0 0.00 0.15 0.12 57 1016.8
20260505235557 52 198 0.0 7.0 0.00 0.15 0.12 56 1016.7
20260505235057 53 0 2.0 7.0 0.00 0.15 0.12 55 1016.8
20260505234613 53 215 1.0 6.0 0.00 0.15 0.12 55 1016.7
20260505234059 54 315 1.0 5.0 0.00 0.15 0.12 56 1016.7
20260505233557 54 0 1.0 4.0 0.00 0.15 0.12 57 1016.5
20260505233100 53 138 1.0 8.0 0.00 0.15 0.12 57 1016.5
20260505232557 53 0 2.0 8.0 0.00 0.15 0.12 55 1016.6
20260505232059 54 316 1.0 8.0 0.00 0.15 0.12 57 1016.5
20260505231600 53 184 2.0 6.0 0.00 0.15 0.12 58 1016.5
20260505231057 52 0 1.0 9.0 0.00 0.15 0.12 55 1016.5
20260505230559 52 145 2.0 9.0 0.00 0.15 0.12 57 1016.6
20260505230058 52 315 2.0 6.0 0.00 0.15 0.12 57 1016.5
20260505225559 53 229 0.0 6.0 0.00 0.15 0.12 49 1016.5
20260505225058 53 280 2.0 6.0 0.00 0.15 0.12 48 1016.3
20260505224557 53 332 3.0 6.0 0.00 0.15 0.12 47 1016.3
20260505224056 54 315 1.0 4.0 0.00 0.15 0.12 47 1016.1
20260505223556 54 312 1.0 5.0 0.00 0.15 0.12 47 1016.2
20260505223108 54 59 2.0 5.0 0.00 0.15 0.12 48 1016.4
20260505222556 54 142 1.0 5.0 0.00 0.15 0.12 49 1016.4
20260505222056 55 354 1.0 5.0 0.00 0.15 0.12 48 1016.3
20260505221557 54 0 2.0 7.0 0.00 0.15 0.12 47 1016.4
20260505221058 54 49 3.0 7.0 0.00 0.15 0.12 49 1016.4
20260505220557 55 293 2.0 5.0 0.00 0.15 0.12 47 1016.5
20260505220100 54 60 1.0 5.0 0.00 0.15 0.12 50 1016.5
20260505215602 53 353 2.0 7.0 0.00 0.15 0.12 51 1016.5
20260505215057 53 47 2.0 7.0 0.00 0.15 0.12 53 1016.6
20260505214604 53 113 0.0 6.0 0.00 0.15 0.12 54 1016.6
20260505214057 52 57 3.0 6.0 0.00 0.15 0.12 53 1016.6
20260505213559 51 331 2.0 5.0 0.00 0.15 0.12 56 1016.7
20260505213057 50 95 2.0 5.0 0.00 0.15 0.12 55 1016.7
20260505212556 51 45 2.0 5.0 0.00 0.15 0.12 56 1016.7
20260505212058 51 74 0.0 4.0 0.00 0.15 0.12 55 1016.7
20260505211634 52 0 1.0 4.0 0.00 0.15 0.12 52 1016.6
20260505211057 53 0 1.0 4.0 0.00 0.15 0.12 57 1016.6
20260505210556 53 0 1.0 4.0 0.00 0.15 0.12 58 1016.6
20260505210058 51 66 1.0 4.0 0.00 0.15 0.12 58 1016.5
20260505205557 51 140 1.0 5.0 0.00 0.15 0.12 58 1016.6
20260505205058 52 0 2.0 5.0 0.00 0.15 0.12 56 1016.8
20260505204559 52 0 0.0 3.0 0.00 0.15 0.12 62 1016.6
20260505204100 51 56 1.0 3.0 0.00 0.15 0.12 59 1016.6
20260505203557 52 259 0.0 3.0 0.00 0.15 0.12 60 1016.7
20260505203126 51 138 0.0 3.0 0.00 0.15 0.12 64 1016.8
20260505202557 50 255 0.0 5.0 0.00 0.15 0.12 65 1016.8
20260505202057 48 240 2.0 5.0 0.00 0.15 0.12 65 1016.8
20260505201556 48 102 2.0 5.0 0.00 0.15 0.12 69 1016.8
20260505201057 48 155 2.0 4.0 0.00 0.15 0.12 66 1016.7
20260505200558 48 248 1.0 4.0 0.00 0.15 0.12 69 1017.0
20260505200058 48 250 0.0 3.0 0.00 0.15 0.12 67 1017.1
20260505195558 48 229 0.0 3.0 0.00 0.15 0.12 64 1017.1
20260505195058 48 174 1.0 5.0 0.00 0.15 0.12 64 1017.1
20260505194558 46 0 2.0 5.0 0.00 0.15 0.12 67 1017.2
20260505194058 46 52 1.0 5.0 0.00 0.15 0.12 70 1017.2
20260505193557 46 42 0.0 6.0 0.00 0.15 0.12 69 1017.2
20260505193054 47 321 2.0 6.0 0.00 0.15 0.12 68 1017.2
20260505192559 48 72 1.0 5.0 0.00 0.15 0.12 64 1017.2
20260505192057 48 0 1.0 5.0 0.00 0.15 0.12 71 1017.0
20260505191558 48 46 0.0 5.0 0.00 0.15 0.12 71 1016.8
20260505191058 48 51 0.0 3.0 0.00 0.15 0.12 70 1016.8
20260505190558 47 0 0.0 3.0 0.00 0.15 0.12 74 1016.8
20260505190059 46 0 1.0 3.0 0.00 0.15 0.12 74 1016.8
20260505185558 46 15 0.0 3.0 0.00 0.15 0.12 83 1016.7
20260505185058 45 79 1.0 2.0 0.00 0.15 0.12 80 1016.7
20260505184558 45 1 1.0 2.0 0.00 0.15 0.12 82 1016.7
20260505184058 44 0 0.0 1.0 0.00 0.15 0.12 85 1016.7
20260505183557 43 0 0.0 3.0 0.00 0.15 0.12 84 1016.6
20260505183102 42 0 0.0 3.0 0.00 0.15 0.12 84 1016.6
20260505182600 42 83 0.0 1.0 0.00 0.15 0.12 83 1016.5
20260505182101 41 0 0.0 2.0 0.00 0.15 0.12 85 1016.6
20260505181555 41 64 0.0 2.0 0.00 0.15 0.12 86 1016.5
20260505181057 41 51 0.0 1.0 0.00 0.15 0.12 87 1016.4
20260505180558 41 0 0.0 1.0 0.00 0.15 0.12 86 1016.3
20260505175558 40 103 1.0 2.0 0.00 0.15 0.12 88 1016.2
20260505175104 40 60 0.0 1.0 0.00 0.15 0.12 89 1016.1
20260505174556 40 0 0.0 1.0 0.00 0.15 0.12 90 1016.0
20260505174057 40 0 0.0 2.0 0.00 0.15 0.12 91 1016.0
20260505173603 40 0 0.0 2.0 0.00 0.15 0.12 90 1015.9
20260505173056 39 51 0.0 1.0 0.00 0.15 0.12 90 1015.9
20260505172600 39 0 0.0 1.0 0.00 0.15 0.12 91 1016.0
20260505172057 38 0 0.0 2.0 0.01 0.15 0.12 91 1015.9
20260505171558 38 0 1.0 2.0 0.01 0.15 0.12 91 1016.0
20260505171058 38 0 1.0 1.0 0.01 0.15 0.12 91 1015.9
20260505170557 38 1 0.0 1.0 0.01 0.15 0.12 92 1015.9
20260505170055 38 0 0.0 1.0 0.01 0.15 0.12 93 1015.8
20260505165557 38 0 0.0 1.0 0.02 0.15 0.12 93 1015.7
20260505165057 37 0 0.0 0.0 0.02 0.15 0.12 93 1016.0
20260505164556 37 0 0.0 0.0 0.02 0.15 0.12 93 1015.9
20260505164059 37 0 0.0 1.0 0.02 0.15 0.12 93 1015.9
20260505163557 36 0 0.0 1.0 0.02 0.15 0.12 93 1015.7
20260505163055 36 53 0.0 1.0 0.02 0.15 0.12 93 1015.7
20260505162558 36 0 0.0 1.0 0.02 0.15 0.12 93 1015.6
20260505162058 36 55 0.0 1.0 0.01 0.14 0.11 93 1015.6
20260505161558 36 55 0.0 0.0 0.02 0.14 0.11 92 1015.5
20260505161056 36 0 0.0 1.0 0.03 0.14 0.11 93 1015.4
20260505160558 36 0 0.0 2.0 0.03 0.14 0.11 93 1015.5
20260505153057 36 300 0.0 2.0 0.05 0.13 0.10 92 1015.0
20260505152601 36 0 0.0 1.0 0.06 0.13 0.10 92 1014.9
20260505152057 36 0 0.0 0.0 0.06 0.13 0.10 92 1014.7
20260505151557 36 0 0.0 0.0 0.06 0.12 0.09 92 1014.8
20260505151057 36 0 0.0 0.0 0.05 0.11 0.08 92 1014.7
20260505150557 35 0 0.0 0.0 0.05 0.11 0.08 92 1014.5
20260505140557 36 0 0.0 0.0 0.02 0.06 0.03 90 1014.2
20260505140123 36 0 0.0 0.0 0.01 0.05 0.02 90 1014.0
20260505130103 36 82 1.0 1.0 0.00 0.04 0.01 91 1013.3
20260505124602 36 157 0.0 1.0 0.00 0.04 0.01 92 1013.3
20260505124100 36 173 0.0 1.0 0.00 0.04 0.01 92 1013.3
20260505123557 36 0 0.0 0.0 0.00 0.04 0.01 92 1013.3
20260505123101 36 0 0.0 0.0 0.00 0.04 0.01 92 1013.2
20260505122557 36 0 0.0 0.0 0.00 0.04 0.01 92 1013.2
20260505122057 36 0 0.0 0.0 0.00 0.04 0.01 92 1013.3
20260505121601 36 0 0.0 1.0 0.00 0.04 0.01 92 1013.4
20260505121057 36 260 0.0 1.0 0.00 0.04 0.01 93 1013.4
20260505120557 36 0 0.0 1.0 0.00 0.04 0.01 93 1013.2
20260505120112 36 0 0.0 1.0 0.00 0.04 0.01 92 1013.5
20260505115556 36 0 0.0 1.0 0.00 0.04 0.01 92 1013.5
20260505115057 36 0 0.0 0.0 0.00 0.04 0.01 92 1013.4
20260505114601 36 0 0.0 0.0 0.00 0.04 0.01 92 1013.5
20260505114057 36 0 0.0 0.0 0.00 0.04 0.01 93 1013.5
20260505113601 36 0 0.0 0.0 0.00 0.04 0.01 93 1013.6
20260505113107 36 0 0.0 0.0 0.00 0.04 0.01 93 1013.5
20260505112558 36 0 0.0 0.0 0.00 0.04 0.01 93 1013.7
20260505112057 36 0 0.0 0.0 0.00 0.04 0.01 93 1013.7
20260505111559 36 0 0.0 0.0 0.00 0.04 0.01 93 1013.7
20260505111057 36 0 0.0 0.0 0.00 0.04 0.01 93 1013.7
20260505110557 36 0 0.0 0.0 0.00 0.04 0.01 93 1013.5
20260505102058 36 0 0.0 0.0 0.01 0.04 0.01 93 1013.5
20260505101604 36 0 0.0 0.0 0.01 0.04 0.01 93 1013.6
20260505101059 36 0 0.0 0.0 0.01 0.04 0.01 93 1013.7
20260505100559 36 0 0.0 0.0 0.01 0.04 0.01 93 1013.7
20260505100101 36 0 0.0 0.0 0.01 0.04 0.01 93 1013.7
20260505095559 36 0 0.0 0.0 0.01 0.04 0.01 93 1013.7
20260505095121 36 0 0.0 0.0 0.01 0.04 0.01 93 1013.7
20260505094602 36 0 0.0 0.0 0.01 0.04 0.01 93 1013.9
20260505094103 36 0 0.0 0.0 0.01 0.04 0.01 92 1014.0
20260505093559 36 0 0.0 0.0 0.01 0.04 0.01 92 1014.0
20260505093059 36 0 0.0 0.0 0.01 0.04 0.01 92 1014.1
20260505092559 36 0 0.0 1.0 0.00 0.03 0.00 92 1014.1
20260505092059 36 0 0.0 1.0 0.00 0.03 0.00 92 1014.1
20260505091611 36 156 0.0 1.0 0.00 0.03 0.00 92 1014.2